Regional Weather Roundup
Issued by NWS Cleveland, OH

Home | Current Version | Previous Version | Graphics & Text | Print | Product List | Glossary On
Versions: 1 2 3 4 5 6 7 8 9 10 11 12 13 14 15 16 17 18 19 20 21 22 23 24 25 26 27 28 29 30 31 32 33 34 35 36 37 38 39 40 41 42 43 44 45 46 47 48 49 50
000
ASUS41 KCLE 310802
RWRCLE
OHIO REGIONAL WEATHER ROUNDUP
NATIONAL WEATHER SERVICE CLEVELAND, OH
400 AM EDT SUN AUG 31 2014

NOTE: "FAIR" INDICATES FEW OR NO CLOUDS BELOW 12,000 FEET WITH NO
SIGNIFICANT WEATHER AND/OR OBSTRUCTIONS TO VISIBILITY.

OHZ001>008-015>018-024>027-034-035-043-044-310900-
   NORTHWEST OHIO

CITY           SKY/WX    TMP DP  RH WIND       PRES   REMARKS
DEFIANCE       CLOUDY    73  68  84 SW8       29.96F
FINDLAY        CLOUDY    73  67  81 SW9       29.98S
TOLEDO EXPRESS CLOUDY    73  68  84 SW8       29.95F
TOLEDO EXEC    CLOUDY    74  67  78 SW12      29.96F
LIMA           CLOUDY    73  66  78 SW9       29.99F
$$

OHZ009>014-019>023-028>033-038-089-310900-
   NORTHEAST OHIO

CITY           SKY/WX    TMP DP  RH WIND       PRES   REMARKS
CLE-HOPKINS    CLOUDY    74  66  76 SW10      30.00F
CLE-LAKEFRONT  CLOUDY    77  65  66 S13       29.96F
CUY CO. ARPT   NOT AVBL
LORAIN-ELYRIA  CLOUDY    78  65  63 SW13      29.99F
ASHTABULA      CLOUDY    72  66  81 SW9       30.01F
AKRON-CANTON   HVY RAIN  71  66  84 W9        30.04F FOG
WOOSTER        LGT RAIN  70  67  90 S7        30.04S FOG
MANSFIELD      CLOUDY    70  68  93 S7        30.03F
YOUNGSTOWN     LGT RAIN  70  65  84 W12       30.04F
$$

OHZ042-051>053-060>062-070>072-077>081-310900-
  SOUTHWEST OHIO

CITY           SKY/WX    TMP DP  RH WIND       PRES   REMARKS
CINC-COVINGTON CLOUDY    72  69  90 S5        30.02F FOG
CINC-LUNKEN    LGT RAIN  72  70  93 CALM      30.02F
HAMILTON       CLOUDY    71  70  96 CALM      30.02F
DAYTON         CLOUDY    72  68  87 S5        30.03F
WRIGHT-PAT AFB CLOUDY    72  69  93 SE3       30.02F
DAYTON GENERAL CLOUDY    70  69  97 S5        30.02F FOG
WILMINGTON     CLOUDY    69  67  93 SW5       30.03F FOG
$$

OHZ036-037-039>041-045>050-054>059-063>069-073>076-082>088-310900-
  CENTRAL AND SOUTHEAST OHIO

CITY           SKY/WX    TMP DP  RH WIND       PRES   REMARKS
COLUMBUS       CLOUDY    73  69  87 S6        30.03F FOG
OSU AIRPORT    CLOUDY    71  69  93 S6        30.03F FOG
BOLTON FIELD   CLOUDY    69  69 100 S6        30.04S FOG
RICKENBACK AFB LGT RAIN  71  66  85 CALM      30.03S
NEWARK         CLOUDY    71  68  90 SW5       30.04F
MARION         CLOUDY    71  67  87 SW8       30.01F
LANCASTER      CLOUDY    71  69  93 CALM      30.04F FOG
ZANESVILLE     CLOUDY    71  68  90 CALM      30.04F FOG
NEW PHILLY     HVY RAIN  70  69  97 W5        30.06R FOG
$$


USA.gov is the U.S. government's official web portal to all federal, state and local government web resources and services.